Other Public Products
Issued by NWS Charleston, SC

Current Version | Previous Version | Graphics & Text | Print | Product List | Glossary On
Versions: 1 2 3 4 5 6 7 8 9 10 11 12 13 14 15 16 17 18 19 20 21 22 23 24 25 26 27 28 29 30 31 32 33 34 35 36 37 38 39 40 41 42 43 44 45 46 47 48 49 50
000
FPUS82 KCHS 280911
OPUCHS

TEST...KCHS/KSAV Gateway Observations...TEST
National Weather Service Charleston SC
400 AM EST TUE FEB 28 2017

NOTE: "fair" indicates few or no clouds below 12,000 feet with no
significant weather and/or obstructions to visibility.

SCZ050-WAZ558-NCZ071-TXZ119-213-PAZ071-DCZ001-FLZ074-172-MI076-
NYZ176-178-MAZ016-IL014-TNZ027-NJZ106-GAZ044-MD014-281000-
...Gateway Observations for Charleston International...

CITY           SKY/WX    TMP DP  RH WIND       PRES   REMARKS
Chas Airport   CLOUDY    63  60  90 CALM      30.26S
Seattle        CLOUDY    35  34  96 CALM      29.80R FOG
Charlotte      MOCLDY    49  36  61 CALM      30.29F
Dallas DFW     CLOUDY    70  66  87 S20G25    29.86F
Dallas Love    CLOUDY    70  65  84 S13       29.88F
Philladelphia  CLOUDY    45  36  70 E3        30.34F
Wash National  MOCLDY    50  34  54 CALM      30.32F
Baltimore      CLOUDY    43  35  73 CALM      30.31F
Miami          PTCLDY    75  70  84 E9        30.20F
Detroit        CLOUDY    37  36  96 CALM      30.14F FOG
Newark         CLOUDY    46  32  58 CALM      30.36F
Laguardia      CLOUDY    48  34  58 S8        30.36S
J F K          CLOUDY    45  40  82 SE3       30.37F
Boston Logan   CLOUDY    40  33  76 SW10      30.39S WCI  33
Ft. Lauderdale MOCLDY    76  70  82 SE13      30.20S
Chicago O`Hare LGT RAIN  48  43  82 S13       29.89F
Chicago Midway CLOUDY    48  42  80 S10       29.90F
Houston Bush   CLOUDY    74  69  85 S9        29.96F
Houston Hobby  CLOUDY    73  70  90 S9        29.97F
Nashville      CLOUDY    55  50  83 S9        30.12F
Atlanta        CLOUDY    52  47  83 E6        30.27R

$$

GAZ044-118-TXZ119-213-NCZ071-DCZ001-MDZ014-506-PAZ021-071-NJZ106-
NYZ176-178-MAZ106-OHZ011-021-055-MIZ076-KYZ091-ILZ014-INZ047-
MNZ060-ONZ431-281000-
...Gateway Observations for Savannah International...

CITY           SKY/WX    TMP DP  RH WIND       PRES   REMARKS
Savannah Arpt  CLOUDY    64  60  87 N12       30.26R
Atlanta        CLOUDY    52  47  83 E6        30.27R
Charlotte      MOCLDY    49  36  61 CALM      30.29F
Dallas DFW     CLOUDY    70  66  87 S20G25    29.86F
Houston Bush   CLOUDY    74  69  85 S9        29.96F
Wash National  MOCLDY    50  34  54 CALM      30.32F
Wash Dulles    PTCLDY    37  32  82 SE3       30.31F
Baltimore      CLOUDY    43  35  73 CALM      30.31F
Philadelphia   CLOUDY    45  36  70 E3        30.34F
Newark         CLOUDY    46  32  58 CALM      30.36F
Laguardia      CLOUDY    48  34  58 S8        30.36S
J F K          CLOUDY    45  40  82 SE3       30.37F
Boston         CLOUDY    40  33  76 SW10      30.39S WCI  33
Pittsburg      PTCLDY    38  38 100 CALM      30.22F
Akron          CLOUDY    36  34  92 SE5       30.18F FOG     WCI  32
Cleveland      MOCLDY    40  35  83 S7        30.19F WCI  35
Cincinnati     CLOUDY    43  40  89 S8        30.09F
Columbus       MOCLDY    37  36  99 CALM      30.15S
Detroit        CLOUDY    37  36  96 CALM      30.14F FOG
Chicago O`Hare LGT RAIN  48  43  82 S13       29.89F
Minneapolis    CLOUDY    37  28  70 CALM      29.76S
Indianapolis   CLOUDY    46  40  79 SE8       30.04F
Toronto Canada MOCLDY    36  32  87 NE3       30.24F

$$




USA.gov is the U.S. government's official web portal to all federal, state and local government web resources and services.